Location: Spring Creek
(38.2870°N, 100.2160°W)
Time: 21:50:59
(UTC+00:00)

Cosmos 2082 Rocket - Pass Details

Date: 08 May 2021
Orbit: 834 x 853 km, 71.0° (Epoch: 20 June)

Event Time Altitude Azimuth Distance (km) Brightness Sun altitude
Rises 03:40:28 0° 356° (N) 3,388 6.1 -20.8°
Reaches altitude 10° 03:44:48 10° 27° (NNE) 2,451 4.8 -21.4°
Maximum altitude 03:46:48 12° 48° (NE) 2,321 4.5 -21.7°
Enters shadow 03:48:37 10° 68° (ENE) 2,428 4.4 -21.9°
